Location: Unspecified
(48.8656°N, 0.0000°E)
Time: 05:45:06
(UTC+00:00)

Vanguard 1 Rocket - Pass Details

Date: 28 June 2019
Orbit: 652 x 4224 km, 34.3° (Epoch: 21 August)

Event Time Altitude Azimuth Distance (km) Brightness Sun altitude
Rises 15:02:20 0° 226° (SW) 8,434 12.9 46.6°
Reaches altitude 10° 15:09:09 10° 220° (SW) 7,228 12.8 45.5°
Maximum altitude 15:28:52 38° 163° (SSE) 4,064 11.1 42.4°
Drops below altitude 10° 15:41:04 10° 102° (ESE) 4,567 10.6 40.5°
Sets 15:44:12 0° 94° (E) 5,166 10.8 40.0°
